Location: Vidojevica
(43.1414°N, 21.5558°E)
Time: 06:04:10
(UTC+02:00)

ISS - Visible Passes

Search period start: 20 October 2018 00:00
Search period end: 29 October 2018 23:00
Orbit: 403 x 408 km, 51.6° (Epoch: 20 October)

Date Brightness Start Highest point End Pass type
(mag) Time Alt. Az. Time Alt. Az. Time Alt. Az.
25 Oct -1.1 06:22:34 10° S 06:25:06 21° SE 06:27:40 10° E visible
26 Oct -0.6 05:32:07 10° SSE 05:33:19 12° SE 05:34:32 10° ESE visible
27 Oct -2.9 06:14:13 10° SW 06:17:23 49° SE 06:20:34 10° ENE visible
28 Oct -1.8 04:23:22 14° S 04:25:28 26° SE 04:28:17 10° ENE visible
29 Oct -0.8 03:34:11 14° ESE 03:34:11 14° ESE 03:35:33 10° E visible
29 Oct -3.9 05:06:54 13° WSW 05:09:45 72° NNW 05:13:01 10° NE visible
